{"data":{"norad_id":62093,"epoch":"2026-09-20T19:54:49.369248Z","epoch_age_seconds":152924,"freshness":"FRESH","line1":"1 62093U 24220F   26263.82973807  .00197244  00000+0  14978-2 0  9990","line2":"2 62093  42.9994 306.8350 0001234 298.8920  61.1823 15.70946438105646","mean_motion":15.70946438,"eccentricity":0.0001234,"inclination_deg":42.9994,"raan_deg":306.835,"arg_perigee_deg":298.892,"mean_anomaly_deg":61.1823,"bstar":0.0014978,"rev_number":10564,"period_min":91.664487417744,"perigee_km":355.35984296345,"apogee_km":357.02187507905,"semimajor_km":6734.3278590213,"source":"CELESTRAK","updated_at":"2026-09-22T09:00:49.496971Z"}}